Find Starlink 11267

NORAD ID: 60994 Int'l Des: 2024-158 Owner: SPXS Country: US Constellation: starlink operational
LEOCIRCULAR

当前视图

正在加载3D地球...

About Starlink 11267

Starlink 11267 (NORAD 60994) is a starlink constellation satellite (v2 mini d2c) launched Sep 5, 2024 by SPXS of US. It operates in LEO, CIRCULAR orbit with a mass of 960.00 kg.

关于 Starlink 11267

正在加载描述...

即将过境

Passes for default location (London). Set your location on the main map for personalized predictions.

高度历史

Loading altitude history...

两行轨道根数

1 60994U 24158E 26171.28056106 .00000295 00000-0 72922-5 0 9996
2 60994 53.1597 135.8312 0001198 92.7834 267.3321 15.69708704103707
Epoch: Jun 20, 2026 • Age: 46 hours

当前状态

高度 361.7 km
速度 7.70 km/s
星下点 34.27°N, 175.03°E
发射日期 Sep 5, 2024
运行时间 1.7 years
类型 internet

技术详情

分类 Payload
质量 960.00 kg
干质量 910.00 kg
总质量 960.00 kg
长度 0.30 m
直径 4.10 m
跨度 29.00 m
形状 Box + pan
制造商 SPXS
平台类型 Starlink V2MD
阶段状态 In Orbit
所有者/国家 SPXS/US

Most Searched